Location: Baia Mare
(47.6567°N, 23.5850°E)
Time: 14:59:56
(UTC+03:00)

ISS - Pass Details

Date: 03 August 2018
Orbit: 402 x 408 km, 51.6° (Epoch: 21 July)

Event Time Altitude Azimuth Distance (km) Brightness Sun altitude
Rises 23:51:56 0° 283° (WNW) 2,323 0.6 -21.3°
Reaches altitude 10° 23:54:52 10° 254° (WSW) 1,459 -0.9 -21.5°
Enters shadow 23:55:01 11° 252° (WSW) 1,430 -1.0 -21.5°
